Location: *
(50.2903°S, 172.5375°W)
Time: 11:30:41
(UTC+00:00)

Resurs 1-4 Rocket - Pass Details

Date: 23 February 2020
Orbit: 800 x 814 km, 98.6° (Epoch: 06 April)

Event Time Altitude Azimuth Distance (km) Brightness Sun altitude
Exits shadow 10:22:29 16° 108° (ESE) 2,048 4.1 -27.2°
Maximum altitude 10:23:52 17° 127° (SE) 1,962 4.2 -27.3°
Drops below altitude 10° 10:27:13 10° 166° (SSE) 2,422 5.2 -27.5°
Sets 10:30:20 0° 184° (S) 3,358 6.5 -27.7°
